Location: T�bingen+AIT
(48.5342°N, 9.0700°E)
Time: 22:28:45
(UTC+01:00)

Cosmos 1980 Rocket - Pass Details

Date: 14 September 2017
Orbit: 828 x 851 km, 71.0° (Epoch: 18 November)

Event Time Altitude Azimuth Distance (km) Brightness Sun altitude
Rises 21:52:38 0° 335° (NNW) 3,386 6.3 -21.7°
Reaches altitude 10° 21:57:08 10° 9° (N) 2,455 4.9 -22.3°
Maximum altitude 21:58:56 11° 28° (NNE) 2,354 4.6 -22.6°
Drops below altitude 10° 22:00:44 10° 46° (NE) 2,457 4.5 -22.8°
Enters shadow 22:01:22 - 53° (NE) 2,540 4.5 -22.9°
